Flag for Germany Weather past 2 weeks in Achern, Baden-Württemberg, Germany

Now
93 °F

Sunny.


Feels Like: 93 °F
Forecast: 71 / 96 °F
Wind: 6 mph from East

Location: Karlsruhe - Baden Wurttemberg

Current Time: Jul 3, 2015 at 8:06:22 PM

Latest Report: Jul 3, 2015 at 7:20 PM


Visibility: 10 mi

Pressure: 30.12 "Hg

Humidity: 34%

Dew point: 61 °F

Location of AchernLocation

Historic Weather in Achern — Graph

°F

Achern temperature yesterday

Maximum temperature yesterday: 95 °F (at 3:20 PM)
Minimum temperature yesterday: 64 °F (at 5:50 AM)
Average temperature yesterday: 84 °F

Past Weeks' High & Low Weather Summary

 TemperatureHumidityPressure
High95 °F (Jul 2, 3:20 PM)94% (Jun 18, 7:20 PM)30.21 "Hg (Jun 18, 7:20 PM)
Low48 °F (Jun 23, 6:20 AM)23% (Jun 26, 3:20 PM)29.74 "Hg (Jun 22, 7:50 PM)
Average68 °F62%30.09 "Hg
* Reported Jun 18 6:20 PM — Jul 3 6:50 PM, Achern, Weather by CustomWeather, © 2015

Note: Actual official high and low records may vary slightly from our data, if they occured in-between our weather recording intervals... More about our weather records

Advertising

Achern weather history for previous 24 hours

 ConditionsComfort  
Time TempWeatherWind HumidityBarometerVisibility
6:50 PM
Fri, Jul 3
93 °FSunny.8 mph32%30.12 "Hg10 mi
6:20 PM95 °FPassing clouds.8 mph28%30.12 "HgN/A
5:50 PM95 °FSunny.6 mph32%30.15 "Hg10 mi
5:20 PM95 °FSunny.7 mph32%30.12 "Hg10 mi
4:50 PM95 °FSunny.9 mph30%30.15 "Hg10 mi
4:20 PM95 °FSunny.7 mph30%30.15 "Hg10 mi
3:50 PM95 °FSunny.8 mph26%30.18 "Hg10 mi
3:20 PM95 °FPassing clouds.8 mph28%30.18 "HgN/A
2:50 PM93 °FPassing clouds.8 mph32%30.18 "HgN/A
2:20 PM93 °FPassing clouds.8 mph34%30.18 "HgN/A
1:50 PM93 °FSunny.9 mph30%30.18 "Hg10 mi
1:20 PM91 °FPassing clouds.9 mph34%30.18 "HgN/A
12:50 PM91 °FPassing clouds.5 mph36%30.21 "HgN/A
12:20 PM90 °FPassing clouds.5 mph43%30.21 "HgN/A
11:50 AM88 °FPassing clouds.5 mph49%30.21 "HgN/A
11:20 AM88 °FPassing clouds.5 mph40%30.21 "HgN/A
10:50 AM86 °FPassing clouds.5 mph46%30.21 "HgN/A
10:20 AM86 °FPassing clouds.5 mph46%30.21 "HgN/A
9:50 AM84 °FPassing clouds.6 mph51%30.21 "HgN/A
9:20 AM82 °FPassing clouds.6 mph55%30.21 "HgN/A
8:50 AM81 °FSunny.7 mph62%30.21 "Hg10 mi
8:20 AM79 °FSunny.7 mph65%30.21 "Hg10 mi
7:50 AM77 °FPassing clouds.5 mph65%30.21 "HgN/A
7:20 AM75 °FSunny.6 mph74%30.18 "Hg10 mi
6:50 AM72 °FSunny.3 mph83%30.18 "Hg10 mi
6:20 AM72 °FClear.7 mph78%30.18 "Hg10 mi
5:50 AM70 °FClear.3 mph83%30.18 "Hg10 mi
5:20 AM72 °FClear.2 mph78%30.18 "Hg10 mi
4:50 AM73 °FClear.5 mph74%30.15 "Hg10 mi
11:50 PM
Thu, Jul 2
77 °FClear.2 mph74%30.12 "Hg10 mi
11:20 PM79 °FClear.1 mph65%30.09 "Hg10 mi
10:50 PM79 °FClear.2 mph65%30.09 "Hg10 mi
10:20 PM79 °FSunny.No wind70%30.09 "Hg10 mi
9:50 PM82 °FSunny.2 mph58%30.09 "Hg10 mi
9:20 PM84 °FSunny.3 mph51%30.07 "Hg10 mi
8:50 PM86 °FSunny.3 mph49%30.07 "Hg10 mi
8:20 PM90 °FSunny.7 mph41%30.07 "Hg10 mi
Weather by CustomWeather, © 2015

See weather overviewHow to use our weather pages